Meridian, MS

11:04 PM CST on December 09, 2019 (GMT -0600)
Key

Weather History for KMEI - November, 2019

Change the Weather History Date:

Monday, November 11, 2019

  Actual Average Record
Temperature  
Mean Temperature 56 °F 56 °F  
Max Temperature 74 °F 69 °F 83 °F (1969)
Min Temperature 39 °F 43 °F 24 °F (1894)
Degree Days  
Heating Degree Days 8 10  
Month to date heating degree days 124 92  
Since 1 July heating degree days 194 216  
Cooling Degree Days 0 1  
Month to date cooling degree days 0 11  
Year to date cooling degree days 2846 2024  
Growing Degree Days 6 (Base 50)    
Moisture  
Dew Point 51 °F    
Average Humidity 80    
Maximum Humidity 93    
Minimum Humidity 53    
Precipitation  
Precipitation 0.34 in 0.15 in 1.79 in (1940)
Month to date precipitation 1.02 1.63  
Year to date precipitation 55.87 47.78  
Sea Level Pressure  
Sea Level Pressure 30.06 in    
Wind  
Wind Speed 4 mph ()    
Max Wind Speed 30 mph    
Max Gust Speed 36 mph    
Visibility 8.5 miles    
Events Rain    
T = Trace of Precipitation, MM = Missing Value Source: Averaged Metar Reports

Daily Weather History Graph

Daily Weather History Graph

Search for Another Location

Airport or City:

Astronomy

Nov. 11, 2019 Rise Set
Actual Time 6:20 AM CST 4:57 PM CST
Civil Twilight 5:54 AM CST 5:22 PM CST
Nautical Twilight 5:25 AM CST 5:52 PM CST
Astronomical Twilight 4:56 AM CST 6:21 PM CST
Moon 4:47 PM CST (11/11) 5:18 AM CST (11/11)
Length of Visible Light 11h 28m
Length of Day
10h 36m
Waxing Gibbous, 99% of the Moon is Illuminated
Nov 11
Waxing Gibbous
Nov 12
Full
Nov 19
Last Quarter
Nov 26
New
Dec 4
First Quarter

Hourly Weather History & Observations

Time (CST) Temp. Windchill Dew Point Humidity Pressure Visibility Wind Dir Wind Speed Gust Speed Precip Events Conditions
12:58 AM 42.1 °F - 39.0 °F 89% 30.10 in 10.0 mi Calm Calm - N/A   Clear
1:58 AM 42.1 °F - 39.0 °F 89% 30.10 in 10.0 mi Calm Calm - N/A   Clear
2:58 AM 41.0 °F 39.0 °F 37.9 °F 89% 30.10 in 10.0 mi South 3.5 mph - N/A   Clear
3:58 AM 41.0 °F - 37.9 °F 89% 30.10 in 10.0 mi Calm Calm - N/A   Clear
4:58 AM 39.9 °F - 36.0 °F 86% 30.10 in 10.0 mi Calm Calm - N/A   Clear
5:58 AM 41.0 °F - 37.9 °F 89% 30.12 in 10.0 mi Calm Calm - N/A   Clear
6:58 AM 43.0 °F - 39.0 °F 86% 30.12 in 10.0 mi Calm Calm - N/A   Clear
7:58 AM 48.9 °F - 44.1 °F 83% 30.13 in 10.0 mi Calm Calm - N/A   Clear
8:58 AM 57.9 °F - 51.1 °F 78% 30.13 in 10.0 mi Calm Calm - N/A   Clear
9:58 AM 68.0 °F - 54.0 °F 61% 30.12 in 10.0 mi SSW 6.9 mph - N/A   Clear
10:58 AM 70.0 °F - 53.1 °F 55% 30.10 in 10.0 mi South 8.1 mph - N/A   Clear
11:58 AM 73.0 °F - 55.0 °F 53% 30.05 in 10.0 mi SSW 10.4 mph - N/A   Partly Cloudy
12:58 PM 72.0 °F - 55.9 °F 57% 30.03 in 10.0 mi South 9.2 mph - N/A   Mostly Cloudy
1:58 PM 72.0 °F - 57.0 °F 59% 30.02 in 10.0 mi South 5.8 mph - 0.00 in   Overcast
2:58 PM 72.0 °F - 57.9 °F 61% 30.00 in 10.0 mi South 6.9 mph - N/A   Partly Cloudy
3:58 PM 70.0 °F - 59.0 °F 68% 30.00 in 10.0 mi SSE 4.6 mph - N/A   Overcast
4:58 PM 68.0 °F - 59.0 °F 73% 30.00 in 10.0 mi SSE 3.5 mph - N/A   Overcast
5:58 PM 64.9 °F - 61.0 °F 87% 29.99 in 10.0 mi Calm Calm - 0.01 in   Overcast
6:58 PM 64.0 °F - 61.0 °F 90% 30.01 in 10.0 mi Calm Calm - 0.00 in   Overcast
7:58 PM 64.0 °F - 61.0 °F 90% 29.99 in 10.0 mi SW 3.5 mph - N/A   Overcast
8:58 PM 64.0 °F - 61.0 °F 90% 30.01 in 4.0 mi NW 4.6 mph - 0.02 in Rain Rain
9:58 PM 64.0 °F - 62.1 °F 93% 29.99 in 3.0 mi Calm Calm - 0.13 in Rain Rain
10:39 PM 64.9 °F - 62.1 °F 90% 29.99 in 2.5 mi Calm Calm - 0.09 in Rain Heavy Rain
10:55 PM 64.4 °F - 60.8 °F 88% 30.00 in 3.0 mi NNW 23.0 mph 27.6 mph 0.18 in Rain Rain
10:58 PM 60.1 °F - 57.0 °F 90% 30.01 in 4.0 mi North 24.2 mph 29.9 mph 0.18 in Rain Rain
11:39 PM 48.0 °F - 44.1 °F 86% 30.09 in 10.0 mi North 20.7 mph 31.1 mph N/A Rain Light Rain
11:58 PM 46.0 °F 37.4 °F 41.0 °F 83% 30.09 in 4.0 mi NNW 25.3 mph 35.7 mph N/A Rain Light Rain